This is the latest recevied weather packets stored in our database for station/object KC3UTO. If no packets are shown the sender has not sent any weather packets the latest 1 day(s).
| Time | Temp. | Humidity | Pressure | Rain* | Wind** | Luminosity | Snow |
|---|---|---|---|---|---|---|---|
| 1778069532 | 18.89° C | 69% | 1008.2 hPa | 0 mm | 0.45 m/s, 332° | 144 W/m² | - |
| 1778069230 | 18.89° C | 69% | 1008.4 hPa | 0 mm | 0.89 m/s, 27° | 120 W/m² | - |
| 1778068927 | 18.89° C | 69% | 1008.4 hPa | 0 mm | 1.34 m/s, 251° | 147 W/m² | - |
| 1778068626 | 18.89° C | 70% | 1008.3 hPa | 0 mm | 0 m/s | 133 W/m² | - |
| 1778068323 | 18.89° C | 69% | 1008.4 hPa | 0 mm | 1.79 m/s, 227° | 118 W/m² | - |
| 1778068020 | 18.89° C | 70% | 1008.3 hPa | 0 mm | 0 m/s | 118 W/m² | - |
| 1778067718 | 18.89° C | 70% | 1008.3 hPa | 0 mm | 0.89 m/s, 43° | 84 W/m² | - |
| 1778067417 | 18.33° C | 70% | 1008.4 hPa | 0 mm | 0.89 m/s, 321° | 93 W/m² | - |
| 1778067114 | 18.89° C | 70% | 1008.3 hPa | 0 mm | 0 m/s | 47 W/m² | - |
| 1778066809 | 18.89° C | 70% | 1008.2 hPa | 0 mm | 0.45 m/s, 230° | 47 W/m² | - |
| 1778066507 | 18.89° C | 70% | 1008.2 hPa | 0 mm | 1.34 m/s, 232° | 45 W/m² | - |
| 1778066205 | 18.89° C | 69% | 1008.1 hPa | 0 mm | 0.89 m/s, 347° | 55 W/m² | - |
| 1778065902 | 18.89° C | 70% | 1008.3 hPa | 0 mm | 0.89 m/s, 36° | 62 W/m² | - |
| 1778065599 | 18.89° C | 69% | 1008.3 hPa | 0 mm | 0.89 m/s, 247° | 54 W/m² | - |
| 1778065297 | 18.89° C | 69% | 1008.4 hPa | 0 mm | 0.89 m/s, 276° | 32 W/m² | - |
| 1778064993 | 18.89° C | 69% | 1008 hPa | 0 mm | 0 m/s | 48 W/m² | - |
| 1778064690 | 18.89° C | 69% | 1007.9 hPa | 0 mm | 1.34 m/s, 85° | 49 W/m² | - |
| 1778064388 | 18.89° C | 69% | 1008 hPa | 0 mm | 1.34 m/s, 298° | 49 W/m² | - |
| 1778064086 | 18.89° C | 69% | 1008.2 hPa | 0 mm | 0 m/s | 51 W/m² | - |
| 1778063783 | 18.89° C | 69% | 1008 hPa | 0 mm | 2.24 m/s, 194° | 25 W/m² | - |
| 1778063480 | 18.33° C | 69% | 1007.8 hPa | 0 mm | 0.45 m/s, 66° | 20 W/m² | - |
| 1778063178 | 18.33° C | 70% | 1007.8 hPa | 0 mm | 0.89 m/s, 53° | 15 W/m² | - |
| 1778062875 | 18.89° C | 69% | 1007.7 hPa | 0 mm | 0.45 m/s, 55° | 14 W/m² | - |
| 1778062572 | 18.33° C | 70% | 1007.8 hPa | 0 mm | 0.89 m/s, 127° | 14 W/m² | - |
| 1778062268 | 18.89° C | 69% | 1007.7 hPa | 0 mm | 0.89 m/s, 75° | 10 W/m² | - |
* Rain latest hour (hover to see other rain measurements)
** Current wind speed in m/s (hover to see current wind gust speed)